Weather History for KC75 - November, 2011

Change the Weather History Date:

Monday, November 21, 2011

  Actual Average (KPIA) Record (KPIA)
Temperature  
Mean Temperature 42 °F 39 °F  
Max Temperature 50 °F 47 °F 74 °F (1913)
Min Temperature 33 °F 31 °F 4 °F (1937)
Degree Days  
Heating Degree Days 24 26  
Month to date heating degree days 443  
Since 1 July heating degree days 889  
Cooling Degree Days 0 0  
Month to date cooling degree days 0  
Year to date cooling degree days 1039  
Moisture  
Dew Point 37 °F    
Average Humidity 84    
Maximum Humidity 100    
Minimum Humidity 69    
Precipitation  
Precipitation 0.01 in 0.10 in 1.02 in (2007)
Month to date precipitation 2.20  
Year to date precipitation 33.14  
Snow  
Snow 0.00 in 0.00 in 0.40 in (1957)
Month to date snowfall 0.4  
Since 1 July snowfall 0.4  
Since 1 September snowfall 0.4  
Snow Depth -    
Sea Level Pressure  
Sea Level Pressure 30.22 in    
Wind  
Wind Speed 6 mph (NE)    
Max Wind Speed 13 mph    
Max Gust Speed 17 mph    
Visibility 10 miles    
Events      
T = Trace of Precipitation, MM = Missing Value Source: NWS Daily Summary

Daily Weather History Graph

Daily Weather History Graph

Search for Another Location

Airport or City:

Trip Planner

Search our weather history database for the weather conditions in past years. The results will help you decide how hot, cold, wet, or windy it might be!

Date:

Astronomy

Nov. 21, 2011 Rise Set
Actual Time 6:51 AM CST 4:34 PM CST
Civil Twilight 6:21 AM CST 5:04 PM CST
Nautical Twilight 5:48 AM CST 5:38 PM CST
Astronomical Twilight 5:15 AM CST 6:10 PM CST
Moon 2:28 AM CST (11/21) 1:58 PM CST (11/21)
Length of Visible Light 10h 42m
Length of Day
9h 42m
Waning Crescent, 17% of the Moon is Illuminated
Nov 21
Waning Crescent
Nov 25
New
Dec 2
First Quarter
Dec 10
Full
Dec 17
Last Quarter

Hourly Weather History & Observations

Time (CST) Temp. Windchill Dew Point Humidity Pressure Visibility Wind Dir Wind Speed Gust Speed Precip Events Conditions
12:15 AM 38.3 °F 35.9 °F 36.0 °F 91% 30.27 in 10.0 mi North 3.5 mph - N/A   Overcast
12:35 AM 38.5 °F 33.4 °F 36.5 °F 93% 30.26 in 10.0 mi North 6.9 mph - N/A   Overcast
1:15 AM 38.7 °F 33.6 °F 36.5 °F 92% 30.25 in 10.0 mi North 6.9 mph - N/A   Overcast
1:35 AM 38.5 °F 35.0 °F 36.5 °F 93% 30.25 in 10.0 mi North 4.6 mph - N/A   Overcast
2:15 AM 37.9 °F 35.5 °F 36.5 °F 95% 30.26 in 7.0 mi North 3.5 mph - N/A   Overcast
2:35 AM 37.6 °F 35.1 °F 36.0 °F 94% 30.26 in 7.0 mi North 3.5 mph - N/A   Overcast
2:55 AM 37.6 °F 35.1 °F 35.8 °F 93% 30.25 in 7.0 mi North 3.5 mph - N/A   Overcast
3:15 AM 37.4 °F 34.9 °F 35.6 °F 93% 30.25 in 10.0 mi North 3.5 mph - N/A   Overcast
3:35 AM 37.0 °F 34.5 °F 35.1 °F 93% 30.25 in 10.0 mi North 3.5 mph - N/A   Overcast
3:55 AM 36.9 °F 34.3 °F 34.7 °F 92% 30.25 in 10.0 mi North 3.5 mph - N/A   Mostly Cloudy
4:15 AM 36.5 °F 33.9 °F 34.3 °F 92% 30.25 in 10.0 mi North 3.5 mph - N/A   Scattered Clouds
4:35 AM 35.6 °F 32.8 °F 34.0 °F 94% 30.24 in 10.0 mi North 3.5 mph - N/A   Scattered Clouds
4:55 AM 35.6 °F - 33.6 °F 92% 30.25 in 10.0 mi Calm Calm - N/A   Clear
5:15 AM 34.9 °F 30.8 °F 33.4 °F 94% 30.25 in 10.0 mi North 4.6 mph - N/A   Clear
5:35 AM 34.9 °F 32.0 °F 33.3 °F 94% 30.26 in 10.0 mi North 3.5 mph - N/A   Clear
5:55 AM 34.7 °F - 33.1 °F 94% 30.27 in 10.0 mi Calm Calm - N/A   Clear
6:15 AM 34.3 °F 31.4 °F 32.9 °F 94% 30.27 in 10.0 mi North 3.5 mph - N/A   Clear
6:35 AM 34.3 °F 30.2 °F 33.1 °F 95% 30.26 in 10.0 mi North 4.6 mph - N/A   Clear
6:55 AM 33.8 °F 28.6 °F 33.8 °F 100% 30.26 in 10.0 mi NNE 5.8 mph - N/A   Scattered Clouds
7:15 AM 34.9 °F 28.3 °F 33.1 °F 93% 30.26 in 10.0 mi NNE 8.1 mph - N/A   Clear
7:35 AM 35.2 °F 31.2 °F 33.3 °F 92% 30.26 in 10.0 mi NNE 4.6 mph - N/A   Clear
7:55 AM 36.3 °F 30.1 °F 34.0 °F 91% 30.27 in 10.0 mi NE 8.1 mph - N/A   Clear
8:15 AM 37.6 °F 32.3 °F 34.7 °F 89% 30.28 in 10.0 mi NE 6.9 mph - N/A   Clear
8:35 AM 38.7 °F 32.4 °F 35.8 °F 89% 30.28 in 10.0 mi NE 9.2 mph - N/A   Clear
8:55 AM 39.9 °F 33.9 °F 36.1 °F 86% 30.28 in 10.0 mi NE 9.2 mph 17.3 mph N/A   Clear
9:15 AM 40.6 °F 33.8 °F 36.7 °F 86% 30.29 in 10.0 mi NE 11.5 mph - N/A   Clear
9:35 AM 41.9 °F 35.0 °F 37.4 °F 84% 30.28 in 10.0 mi ENE 12.7 mph 17.3 mph N/A   Clear
9:55 AM 42.4 °F 36.1 °F 37.9 °F 84% 30.27 in 10.0 mi NE 11.5 mph - N/A   Clear
10:15 AM 44.1 °F 37.7 °F 38.8 °F 82% 30.27 in 10.0 mi NE 12.7 mph - N/A   Clear
10:35 AM 44.6 °F 39.2 °F 39.0 °F 81% 30.26 in 10.0 mi NNE 10.4 mph - N/A   Clear
10:55 AM 45.0 °F 39.7 °F 39.4 °F 81% 30.25 in 10.0 mi NE 10.4 mph - N/A   Clear
11:15 AM 46.4 °F 41.9 °F 41.0 °F 81% 30.24 in 10.0 mi NE 9.2 mph - N/A   Scattered Clouds
11:35 AM 46.9 °F - 40.6 °F 79% 30.23 in 10.0 mi NE 6.9 mph - N/A   Scattered Clouds
11:55 AM 47.3 °F - 40.6 °F 78% 30.23 in 10.0 mi ENE 9.2 mph - N/A   Scattered Clouds
12:15 PM 48.2 °F - 40.8 °F 76% 30.23 in 10.0 mi NNE 5.8 mph - N/A   Scattered Clouds
12:35 PM 49.3 °F - 41.4 °F 74% 30.21 in 10.0 mi NNE 9.2 mph - N/A   Mostly Cloudy
12:55 PM 48.9 °F - 40.8 °F 74% 30.20 in 10.0 mi NE 9.2 mph - N/A   Scattered Clouds
1:15 PM 49.3 °F - 41.0 °F 73% 30.19 in 10.0 mi ENE 9.2 mph - N/A   Clear
1:35 PM 49.1 °F - 41.0 °F 74% 30.18 in 10.0 mi NE 10.4 mph - N/A   Clear
1:55 PM 49.5 °F - 41.2 °F 73% 30.18 in 10.0 mi ENE 10.4 mph 16.1 mph N/A   Scattered Clouds
2:15 PM 50.7 °F - 41.0 °F 69% 30.18 in 10.0 mi ENE 9.2 mph - N/A   Scattered Clouds
2:55 PM 49.8 °F - 40.1 °F 69% 30.16 in 7.0 mi ENE 10.4 mph - N/A   Scattered Clouds
3:15 PM 49.5 °F - 39.9 °F 70% 30.17 in 10.0 mi NE 9.2 mph - N/A   Clear
3:35 PM 49.3 °F - 40.1 °F 71% 30.16 in 10.0 mi NE 11.5 mph - N/A   Clear
3:55 PM 48.7 °F - 39.7 °F 71% 30.16 in 10.0 mi ENE 9.2 mph - N/A   Clear
4:15 PM 48.0 °F - 39.4 °F 72% 30.17 in 10.0 mi NE 9.2 mph - N/A   Clear
4:35 PM 47.3 °F - 39.2 °F 73% 30.17 in 10.0 mi NE 8.1 mph - N/A   Clear
4:55 PM 46.4 °F 42.9 °F 39.0 °F 75% 30.17 in 10.0 mi NE 6.9 mph - N/A   Clear
5:15 PM 45.5 °F 42.5 °F 38.7 °F 77% 30.18 in 10.0 mi NE 5.8 mph - N/A   Clear
5:35 PM 45.1 °F 41.4 °F 38.5 °F 77% 30.17 in 10.0 mi NNE 6.9 mph - N/A   Clear
5:55 PM 45.0 °F 41.2 °F 38.5 °F 78% 30.17 in 10.0 mi NE 6.9 mph - N/A   Scattered Clouds
6:15 PM 44.1 °F 40.1 °F 38.3 °F 80% 30.17 in 10.0 mi NE 6.9 mph - N/A   Mostly Cloudy
6:35 PM 43.7 °F 39.1 °F 38.3 °F 81% 30.17 in 10.0 mi ENE 8.1 mph - N/A   Overcast
6:55 PM 43.3 °F 39.2 °F 38.3 °F 82% 30.17 in 10.0 mi NE 6.9 mph - N/A   Overcast
7:15 PM 43.0 °F 38.8 °F 38.3 °F 84% 30.18 in 10.0 mi NE 6.9 mph - N/A   Overcast
7:35 PM 42.8 °F 37.5 °F 38.3 °F 84% 30.17 in 10.0 mi NE 9.2 mph - N/A   Overcast
7:55 PM 42.8 °F 37.5 °F 38.8 °F 86% 30.16 in 10.0 mi NE 9.2 mph - N/A   Overcast
8:15 PM 42.4 °F 36.5 °F 38.8 °F 87% 30.15 in 10.0 mi ENE 10.4 mph 16.1 mph N/A   Overcast
8:35 PM 42.3 °F 35.9 °F 38.5 °F 86% 30.16 in 7.0 mi ENE 11.5 mph - N/A   Overcast
8:55 PM 42.1 °F 36.6 °F 38.7 °F 88% 30.17 in 7.0 mi ENE 9.2 mph - N/A   Overcast
9:15 PM 42.3 °F 35.9 °F 38.5 °F 86% 30.16 in 7.0 mi ENE 11.5 mph - N/A   Overcast
9:35 PM 41.9 °F 35.0 °F 38.7 °F 88% 30.15 in 7.0 mi NE 12.7 mph 17.3 mph N/A   Overcast
9:55 PM 42.1 °F 35.7 °F 38.3 °F 86% 30.13 in 10.0 mi NE 11.5 mph 19.6 mph N/A   Overcast
10:15 PM 42.4 °F 36.5 °F 38.3 °F 85% 30.15 in 10.0 mi ENE 10.4 mph - N/A   Overcast
10:35 PM 42.6 °F 38.4 °F 38.1 °F 84% 30.17 in 10.0 mi ENE 6.9 mph - N/A   Overcast
10:55 PM 42.8 °F 39.3 °F 37.8 °F 82% 30.18 in 10.0 mi ENE 5.8 mph - N/A   Overcast
11:15 PM 42.8 °F 38.6 °F 37.6 °F 82% 30.17 in 10.0 mi ENE 6.9 mph - N/A   Overcast
11:35 PM 42.8 °F 38.0 °F 37.9 °F 83% 30.16 in 10.0 mi ENE 8.1 mph - N/A   Overcast
11:55 PM 42.3 °F 37.3 °F 38.7 °F 87% 30.16 in 10.0 mi East 8.1 mph - N/A   Overcast